Regional Weather Roundup
Issued by NWS

Home | Current Version | Previous Version | Graphics & Text | Print | Product List | Glossary On
Versions: 1 2 3 4 5 6 7 8 9 10 11 12 13 14 15 16 17 18 19 20 21 22 23 24 25 26 27 28 29 30 31 32 33 34 35 36 37 38 39 40 41 42 43 44 45 46 47 48 49 50
000
ASUS43 KFSD 161810
RWRSD

WEATHER ROUNDUP FOR SOUTH DAKOTA
NATIONAL WEATHER SERVICE SIOUX FALLS SD
100 PM CDT TUE SEP 16 2014

NOTE: "FAIR" INDICATES FEW OR NO CLOUDS BELOW 12,000 FEET WITH NO
SIGNIFICANT WEATHER AND/OR OBSTRUCTIONS TO VISIBILITY.


SDZ001>005-009-010-012>017-161900-
NORTHWEST AND NORTH CENTRAL SOUTH DAKOTA

CITY           SKY/WX    TMP DP  RH WIND       PRES   REMARKS
BUFFALO          N/A     74  47  38 VRB3      29.93F
FAITH            N/A     70  47  43 CALM      29.99F
MOBRIDGE       SUNNY     66  48  52 VRB3      29.97F
$$

SDZ012>016-024>037-041>051-057-063-072>074-161900-
SOUTHWEST AND SOUTH CENTRAL SOUTH DAKOTA

CITY           SKY/WX    TMP DP  RH WIND       PRES   REMARKS
RAPID CTY ARPT SUNNY     77  46  33 SW3       30.02F
PIERRE         SUNNY     69  50  50 CALM      29.97F
CUSTER         SUNNY     76  25  15 W13G21    30.13S
ELLSWORTH AFB  SUNNY     76  43  31 VRB2      30.01F
PHILIP         SUNNY     73  51  46 SW3       29.98F
PINE RIDGE     SUNNY     73  52  47 VRB5      30.03F
WINNER         FAIR      72  52  49 SW10      29.99F
$$

SDZ004>011-016>023-039-040-161900-
NORTHEAST SOUTH DAKOTA

CITY           SKY/WX    TMP DP  RH WIND       PRES   REMARKS
ABERDEEN       SUNNY     64  47  53 S12       30.01F
WATERTOWN      MOSUNNY   65  46  50 S15G22    30.04F
SISSETON         N/A     70  45  40 S13G20    30.02F
$$

SDZ017-020-022-023-036>040-048>070-161900-
SOUTHEAST SOUTH DAKOTA

CITY           SKY/WX    TMP DP  RH WIND       PRES   REMARKS
SIOUX FALLS    MOSUNNY   65  46  50 S14       30.09F
HURON          SUNNY     67  48  50 S14       30.02F
CHAMBERLAIN    SUNNY     68  53  58 S12       30.00F
MITCHELL       MOSUNNY   68  50  52 S15G25    30.04F
YANKTON        CLOUDY    64  48  55 S14G20    30.09F
$$

ABBREVIATIONS USED IN REMARKS
   TC - TEMPERATURE IN CELSIUS
  WCI - WIND CHILL INDEX
   HX - HEAT INDEX
  VSB - VISIBILITY




USA.gov is the U.S. government's official web portal to all federal, state and local government web resources and services.